Temperature
24 24 23 24 28 30 30 30 30 30 30 29 28 28 29 29 28 27 22 21 21 20 19 20 19 19 19 19 19 19 19 19 19 19 19 19 19 19 18 18 18 18 18 18 18 18 18 18 19
23 23 23 26 28 29 30 30 30 30 29 28 27 27 27 27 25 23 21 20 20 20 19 19 19 19 19 19 19 19 19 19 19 19 19 19 19 18 18 18 18 18 18 18 18 18 18 18 18
23 23 25 28 28 29 30 30 30 29 28 28 28 27 27 26 23 22 21 20 20 19 19 19 19 19 19 19 19 19 19 19 19 19 19 19 18 18 18 18 18 18 18 18 18 18 18 18 18
22 24 26 27 28 29 30 30 30 29 29 28 28 28 27 23 23 21 21 20 20 19 19 19 19 19 19 19 19 19 19 19 19 19 19 19 18 18 18 18 18 18 18 18 18 18 18 18 18
23 26 27 27 28 30 30 29 29 30 29 28 28 29 27 22 22 21 21 20 20 19 19 19 19 19 19 19 19 19 19 19 19 19 19 18 18 18 18 18 17 17 17 17 18 18 18 18 18
24 26 27 27 29 30 30 29 29 29 30 29 28 29 27 22 22 21 21 20 20 20 19 19 19 19 19 19 19 19 19 19 19 19 18 18 18 18 17 17 17 17 17 17 17 17 17 18 18
25 27 27 28 28 29 30 29 29 29 30 29 29 29 27 23 22 21 21 20 20 20 19 19 19 19 19 19 19 19 19 19 19 18 18 18 18 17 17 17 17 17 17 17 17 17 17 17 18
25 27 27 28 28 29 29 28 28 28 29 29 28 29 28 24 22 21 21 20 20 20 19 19 18 18 18 18 19 19 19 19 19 18 18 18 18 17 17 17 17 17 17 17 17 17 17 17 17
23 26 27 28 28 29 29 29 29 27 28 28 28 28 27 24 22 21 21 20 20 20 19 19 19 18 18 18 18 19 19 19 18 18 18 18 17 17 17 16 17 17 17 17 17 17 17 17 17
24 25 27 28 28 29 29 28 28 28 29 28 28 26 25 23 23 22 22 21 20 20 20 20 19 19 18 18 18 18 18 18 18 17 17 17 16 16 16 16 17 17 17 17 17 17 17 17 17
25 26 27 27 27 27 28 28 28 28 30 29 29 27 24 24 23 23 22 22 21 21 20 20 19 19 19 18 18 18 17 17 17 17 17 17 16 16 16 16 16 17 17 17 17 17 17 17 17
25 25 25 26 26 26 27 28 28 29 29 29 29 28 25 24 24 24 23 23 22 21 20 20 20 19 19 19 18 18 18 18 17 17 17 16 16 16 16 16 16 16 16 16 16 16 16 16 17
24 25 25 25 25 26 26 27 28 28 29 28 28 27 26 25 25 25 24 23 22 21 21 20 20 19 19 18 18 18 18 18 17 17 17 16 16 16 16 16 16 16 16 16 16 16 16 16 17
25 25 25 25 26 26 27 28 28 29 28 28 28 27 26 26 26 25 24 23 22 22 21 20 19 19 19 19 19 18 18 18 17 17 17 16 16 16 16 16 16 16 16 16 16 16 16 16 16
24 25 25 26 26 27 27 28 29 29 28 28 28 27 26 26 26 25 25 24 23 22 21 20 20 19 20 19 19 18 18 17 17 17 16 16 16 16 16 16 16 16 16 16 16 16 16 16 16
24 24 25 27 27 27 27 28 30 28 28 29 28 28 27 26 26 25 25 24 23 22 21 21 20 19 20 20 19 18 17 17 17 17 16 16 16 16 16 16 16 16 16 15 15 15 16 16 15
24 25 26 27 27 28 27 29 30 28 28 29 28 28 27 27 26 26 25 24 23 22 21 21 20 19 19 19 19 18 17 17 17 17 17 16 16 16 16 16 15 15 15 15 15 15 15 15 15
25 25 26 26 27 27 27 28 29 29 28 29 29 28 27 27 26 26 25 24 22 22 21 21 20 20 19 19 18 18 17 17 17 17 16 16 16 16 15 15 15 15 15 15 15 15 15 14 14
25 25 25 26 26 26 27 27 28 29 28 29 28 28 28 27 26 25 24 23 22 21 20 20 19 19 19 18 18 17 17 17 17 16 16 16 16 15 15 15 15 14 14 14 14 14 14 14 14
24 24 25 25 25 25 26 27 28 28 28 27 27 26 26 26 25 24 24 23 22 21 20 19 19 19 19 19 18 17 17 16 16 16 16 16 16 15 15 14 14 14 13 13 13 13 13 13 13
23 23 24 25 25 25 25 26 27 28 27 26 25 24 24 23 23 23 22 22 22 21 20 19 19 18 18 18 17 17 16 16 16 15 16 15 15 15 14 14 13 13 13 13 12 12 12 12 11
23 24 24 24 24 26 25 26 27 28 27 26 24 23 22 21 21 21 21 21 21 20 19 19 18 18 18 17 17 17 16 16 15 15 15 15 14 14 14 13 13 13 12 12 12 11 11 11 10
24 25 24 24 24 25 25 25 27 27 26 25 22 20 19 18 18 18 19 19 19 18 18 18 18 17 17 17 16 16 15 15 15 15 14 14 14 13 13 13 12 12 11 11 11 10 10 10 10
24 24 24 24 24 23 25 25 26 26 24 22 20 18 16 16 16 16 16 16 16 17 17 17 17 16 16 16 15 15 15 15 14 14 14 13 13 12 12 12 11 11 10 10 10 9 9 9 8
23 23 23 23 23 24 26 25 25 22 21 20 18 16 15 15 15 15 15 15 15 15 15 15 15 15 15 15 15 14 14 14 13 13 12 12 12 11 11 11 10 10 9 9 8 8 8 7 7
23 23 23 23 24 25 24 25 23 21 19 17 16 15 14 14 14 14 14 14 14 14 14 14 14 14 14 14 14 13 13 13 13 12 12 11 11 10 10 9 9 8 8 7 7 7 7 6 6
23 24 25 25 24 25 25 24 21 20 18 17 15 14 13 12 12 13 13 13 13 13 13 13 13 13 13 13 13 13 12 12 12 11 11 10 10 9 8 8 7 7 7 6 6 6 6 6 5
25 25 24 23 23 23 24 24 24 20 18 17 15 13 12 12 12 12 12 12 12 12 12 12 12 12 12 12 12 12 11 11 11 10 10 9 8 8 7 7 7 6 6 6 5 5 5 5 5
23 23 24 24 24 24 24 24 23 21 18 16 14 12 11 11 11 11 11 11 11 11 11 11 11 11 11 11 11 11 10 10 9 9 9 8 7 7 7 6 6 5 5 5 5 4 4 4 3
24 24 24 23 23 24 24 22 20 19 17 15 13 12 11 11 10 10 10 10 10 10 10 10 10 10 10 10 10 9 9 8 8 8 7 7 6 6 6 5 5 5 4 4 4 3 3 3 3
Wind_Speed
8 6 6 6 7 7 4 2 3 4 3 4 3 3 4 4 4 3 6 15 17 18 21 22 18 17 16 15 15 16 18 18 18 18 18 17 16 15 14 13 12 12 11 11 11 11 11 10 10
6 4 5 6 8 8 2 1 3 6 5 3 1 2 3 1 3 5 9 15 18 19 20 21 20 17 17 16 16 16 17 18 18 18 17 16 16 15 14 13 11 11 10 10 10 10 9 9 8
6 5 6 7 10 10 4 2 5 6 3 3 2 1 2 2 3 6 11 18 18 18 19 20 20 18 17 16 16 16 17 17 17 17 16 15 15 14 13 12 11 10 9 9 9 8 8 7 6
6 6 6 10 15 12 9 8 8 9 6 3 3 1 2 4 3 8 16 18 18 18 18 21 20 19 17 17 16 16 16 16 16 15 15 14 13 12 11 10 9 8 8 7 7 7 7 6 5
7 8 13 17 19 14 10 10 12 12 8 4 5 2 2 5 7 14 18 18 18 17 17 21 20 19 18 17 16 15 15 15 14 14 13 12 12 11 10 9 8 7 7 6 6 6 6 5 4
7 9 16 19 19 14 11 11 12 13 11 8 6 5 3 8 11 15 17 17 17 17 17 20 20 19 18 18 17 15 15 14 13 13 12 11 10 10 9 8 7 6 6 5 6 6 5 4 3
13 14 20 21 18 14 11 9 11 12 12 10 7 5 5 10 12 16 16 16 16 16 16 18 20 19 18 16 16 15 15 14 13 12 11 11 10 9 8 7 7 6 5 5 5 5 5 4 3
10 11 19 19 17 15 8 7 8 10 10 6 7 6 6 14 15 16 16 15 15 16 15 16 18 19 18 18 16 15 14 14 13 12 11 11 10 9 8 9 8 6 5 4 4 4 4 4 3
8 12 16 16 13 11 7 7 6 6 8 8 10 5 4 18 18 17 16 15 15 15 15 15 16 16 16 16 17 16 14 14 13 13 12 11 12 12 11 8 8 6 5 4 4 3 4 4 6
10 14 17 9 8 7 5 7 6 6 10 11 11 7 9 19 20 20 19 19 18 18 18 16 16 16 16 13 14 14 14 14 14 12 13 12 9 8 7 11 7 6 5 5 5 4 6 9 7
11 13 10 8 9 8 8 8 6 9 11 12 13 14 15 19 20 20 20 19 19 19 18 17 16 15 15 12 12 11 11 11 13 12 12 10 8 8 7 7 9 9 9 9 8 9 7 6 3
11 12 10 9 8 9 9 9 9 11 11 7 9 12 17 20 21 22 21 19 18 18 19 17 17 15 14 12 11 10 9 9 10 11 11 10 7 6 7 6 6 7 7 5 6 5 5 4 4
15 11 11 13 12 12 12 13 12 13 10 8 8 12 18 20 21 20 19 18 18 18 18 18 17 15 13 11 9 10 9 9 9 8 10 9 7 6 6 5 5 6 5 6 6 5 4 5 5
11 13 12 13 14 13 14 14 11 10 6 8 9 13 17 19 20 19 19 19 19 18 18 17 17 15 14 12 10 8 9 8 8 8 9 9 7 6 5 6 5 5 5 4 4 4 4 4 3
8 10 12 14 15 12 10 14 14 7 5 7 10 12 15 17 18 19 20 20 19 18 17 16 16 16 15 14 12 9 8 8 7 6 6 7 8 6 6 5 5 5 4 4 4 3 3 3 3
10 11 12 11 12 11 11 14 9 3 4 6 8 10 12 15 17 18 19 18 18 17 17 17 15 16 16 13 11 8 7 6 5 5 5 6 7 6 6 5 4 3 4 4 3 3 3 3 3
11 12 12 10 9 8 12 12 6 1 3 5 6 8 10 12 15 16 17 18 17 17 17 17 17 16 15 14 10 8 6 5 5 4 4 4 5 5 5 3 2 2 2 1 2 1 1 2 2
12 12 11 11 8 8 12 13 7 4 4 6 5 7 8 10 12 13 14 15 16 16 16 16 16 16 14 12 10 8 7 6 4 3 3 2 0 1 1 1 1 1 1 1 2 3 2 1 1
6 9 10 8 3 7 11 12 10 7 6 6 6 5 6 8 9 8 10 12 14 16 16 17 17 16 14 12 11 10 8 6 5 3 4 3 3 3 2 1 1 2 2 3 3 3 2 1 1
11 11 10 8 5 6 10 13 11 8 6 3 4 5 6 7 6 5 6 8 12 14 15 16 17 17 16 13 11 9 8 6 5 4 5 5 4 4 4 4 3 4 3 4 4 3 2 1 1
16 15 13 9 7 9 10 14 13 9 5 0 3 5 6 7 7 6 4 5 8 10 13 13 15 15 15 14 11 9 7 5 5 5 4 4 5 5 5 4 4 4 3 3 4 4 4 3 2
15 14 12 11 11 10 8 13 13 9 7 2 5 7 8 9 8 7 4 2 2 4 7 9 11 12 13 14 13 14 10 8 6 5 4 5 5 5 6 5 5 4 4 5 4 2 2 2 2
12 9 11 11 11 12 11 10 11 8 8 2 7 9 11 11 11 9 8 7 6 5 6 7 9 10 11 12 12 11 8 6 6 6 7 6 6 6 7 7 6 5 4 4 4 4 3 1 0
10 8 8 9 11 14 14 12 10 4 1 3 7 10 11 11 12 12 12 12 12 11 10 10 11 11 10 9 9 8 9 9 9 8 8 7 6 6 8 9 8 7 6 6 5 5 4 3 2
14 11 9 10 11 11 9 10 3 7 5 6 8 10 11 12 12 13 14 14 14 14 13 12 13 12 11 10 9 9 9 9 9 8 8 7 7 7 8 8 8 7 7 6 5 4 4 3 2
17 17 11 8 10 9 9 9 7 8 9 10 11 12 12 13 13 14 14 14 14 15 14 14 15 14 13 12 11 10 9 7 7 8 8 8 7 8 8 9 8 8 7 6 5 4 3 2 1
16 17 16 11 8 7 8 7 8 9 10 11 12 13 13 13 14 14 15 15 15 16 15 15 15 15 14 14 13 13 11 11 11 11 10 9 9 9 9 9 8 7 7 5 4 4 3 1 2
13 14 10 12 11 11 10 12 10 13 11 11 11 12 12 13 13 14 14 15 14 14 15 16 16 16 15 14 13 12 12 12 12 11 11 10 10 10 10 9 8 7 6 5 4 3 2 1 2
13 13 11 12 12 11 11 6 6 12 12 12 12 12 12 12 12 12 12 13 13 14 15 15 15 15 15 14 14 13 13 13 12 12 11 11 10 9 9 8 7 6 6 4 3 2 2 3 4
13 13 14 12 11 11 11 3 6 10 12 14 14 13 13 13 12 12 12 13 13 14 14 14 14 14 14 14 14 13 13 13 12 12 11 10 10 8 8 7 7 5 4 3 2 3 3 5 6
Wind_Direction
210 228 261 271 268 257 279 13 350 351 9 12 340 312 324 328 329 22 121 154 152 152 152 158 159 156 151 144 138 134 134 137 139 141 142 140 138 134 132 130 128 128 127 127 126 124 124 124 125
209 228 253 265 274 266 239 26 350 8 8 345 284 256 285 358 49 102 140 152 153 153 155 162 158 158 154 148 143 139 139 140 140 141 143 142 140 139 138 137 135 133 132 130 128 127 126 127 128
195 232 268 270 259 266 284 7 347 343 333 293 278 265 306 21 105 135 146 153 155 154 158 155 158 160 157 153 149 146 146 146 146 146 147 146 145 144 143 143 142 140 137 134 130 127 127 128 130
196 226 247 254 255 258 275 293 312 306 294 269 266 236 97 62 117 140 146 156 157 159 162 155 162 162 161 159 157 154 153 152 152 152 151 150 149 147 147 147 146 143 138 133 128 125 124 125 127
227 246 249 250 254 259 267 282 291 285 278 259 256 249 126 106 118 138 151 159 162 163 164 159 164 164 165 165 164 163 160 159 157 156 155 153 151 151 152 152 150 147 142 134 126 120 116 116 118
222 238 246 249 252 253 260 270 274 270 265 249 243 244 131 129 141 151 157 164 166 166 166 158 164 168 170 171 171 169 167 164 161 159 158 157 156 157 158 157 156 153 147 136 126 119 115 111 111
233 235 245 250 257 257 259 263 261 261 255 241 230 226 148 154 153 158 161 167 169 169 169 165 173 176 177 176 175 173 170 168 167 165 165 165 164 165 166 165 162 156 150 142 132 124 120 117 117
241 241 245 246 251 254 247 243 250 259 258 239 219 227 178 160 157 161 165 171 173 174 176 174 178 180 183 184 181 179 176 174 173 173 174 173 174 178 177 182 162 161 157 151 140 130 130 132 130
230 236 240 238 242 244 225 239 248 256 247 225 216 232 117 149 159 165 170 177 180 181 182 183 181 182 188 187 177 182 182 182 181 184 183 188 196 190 186 181 150 168 169 163 153 148 154 178 166
217 233 239 244 244 243 234 254 267 247 230 217 207 186 148 156 167 176 181 184 186 187 189 188 186 183 189 187 175 189 191 186 197 193 189 201 204 203 199 135 155 178 183 182 174 177 196 225 194
220 237 244 238 241 259 264 265 260 254 238 219 208 190 174 174 179 186 191 192 192 191 191 192 189 189 190 188 184 191 195 186 199 200 195 203 203 201 207 185 179 192 199 205 177 202 210 213 213
228 238 246 244 241 252 265 274 269 253 250 240 222 198 184 187 190 194 197 197 195 195 195 196 191 191 197 194 190 193 196 191 199 194 203 200 207 211 208 212 201 200 204 209 212 211 197 207 199
228 235 235 243 250 258 270 269 270 262 256 246 229 202 196 198 199 199 200 201 199 199 199 198 196 191 195 199 201 200 203 199 199 199 202 212 212 214 210 214 221 225 212 201 216 215 191 208 204
227 235 244 246 249 254 259 263 254 253 252 235 217 207 206 209 207 200 201 203 204 202 202 199 199 194 194 198 205 203 205 204 209 203 205 210 221 220 222 217 213 226 227 228 218 206 199 216 215
234 236 238 237 238 243 254 251 236 241 251 231 217 212 214 216 211 208 206 206 206 204 202 201 200 196 197 201 204 205 207 203 211 207 210 213 226 224 233 237 223 221 213 200 218 202 212 210 208
213 227 232 215 217 225 233 232 195 191 236 231 224 217 219 221 220 216 212 209 207 205 201 201 202 197 196 200 202 204 205 197 200 203 206 214 233 235 237 247 244 232 224 213 207 218 219 220 234
206 217 218 200 202 214 222 236 184 224 253 247 235 229 226 226 227 223 219 212 209 206 202 200 202 198 195 193 192 194 181 185 190 195 205 214 232 244 248 260 274 254 233 217 205 170 243 239 261
205 213 210 209 181 223 229 240 240 253 270 258 250 242 236 237 237 233 227 220 211 207 204 202 199 196 190 187 183 183 177 175 169 170 154 144 178 268 296 325 295 230 176 133 122 119 75 5 311
222 219 213 213 207 246 239 245 252 254 262 260 260 263 262 257 259 250 234 224 216 209 205 202 199 191 187 186 183 181 178 167 156 138 126 134 136 133 131 138 150 174 174 168 157 139 152 167 238
225 227 226 225 221 259 255 255 254 251 250 282 310 308 305 301 298 282 250 225 218 214 209 204 200 193 189 186 181 177 164 154 144 135 125 130 133 140 151 169 179 183 176 171 168 166 185 187 216
224 231 235 241 242 241 255 248 231 223 209 129 11 3 352 341 331 325 299 244 221 214 209 206 199 191 186 174 163 153 147 145 150 154 146 134 140 137 139 155 164 159 157 156 156 172 193 195 191
223 225 237 243 247 236 224 249 211 206 201 126 34 22 13 5 360 353 353 342 207 198 192 189 182 174 170 165 166 166 171 170 166 156 143 129 121 123 128 131 135 133 132 138 148 150 171 186 189
226 216 225 236 243 255 230 246 230 192 209 101 40 32 27 24 26 30 35 47 62 86 112 128 139 146 152 157 161 163 160 146 135 133 131 124 112 109 115 114 111 109 105 106 105 111 101 112 159
213 205 217 234 238 239 232 232 227 173 125 49 53 47 40 38 43 48 54 60 65 73 84 96 106 112 124 135 140 141 133 131 135 138 135 126 114 110 109 107 104 101 99 97 97 96 90 75 70
207 209 209 212 217 231 201 220 183 90 79 76 72 63 54 49 51 52 54 57 61 66 74 83 91 91 94 98 100 107 116 125 134 137 133 125 117 111 106 105 105 103 101 101 101 97 88 81 72
206 215 225 224 220 206 184 213 121 103 97 92 86 76 64 55 53 53 52 54 59 63 68 75 79 80 80 82 83 85 93 99 101 103 108 108 107 106 107 106 106 106 106 106 105 103 95 83 15
205 218 235 257 257 238 187 145 128 126 113 102 93 82 70 62 57 55 53 54 56 60 63 70 75 75 74 76 78 78 79 84 89 95 99 104 108 112 110 107 103 100 97 94 91 79 65 39 322
228 216 219 232 233 231 208 199 180 159 136 117 102 90 80 70 62 57 54 55 57 60 65 68 72 74 74 75 77 82 83 88 94 97 97 100 103 105 107 103 98 95 91 91 89 96 64 344 319
204 212 220 230 244 243 230 193 113 147 140 124 108 97 87 78 69 63 61 60 63 64 66 69 71 74 75 77 79 81 83 86 90 91 93 94 94 97 98 100 99 96 93 85 69 42 359 325 320
208 213 216 228 229 242 260 134 112 130 129 123 113 103 93 86 80 75 72 69 67 67 67 69 71 74 77 80 82 83 85 86 87 88 88 91 94 95 98 98 96 93 85 67 40 6 343 329 325
Height
1537 1537 1537 1537 1528 1517 1513 1510 1509 1508 1509 1513 1515 1513 1513 1513 1515 1523 1525 1525 1527 1531 1533 1536 1540 1543 1546 1548 1551 1553 1555 1557 1559 1560 1562 1563 1565 1566 1567 1569 1570 1571 1572 1572 1573 1574 1574 1574 1575
1537 1537 1539 1534 1525 1520 1513 1510 1510 1511 1514 1516 1516 1517 1516 1516 1521 1523 1523 1525 1528 1531 1534 1537 1540 1544 1547 1549 1552 1554 1556 1558 1560 1561 1563 1564 1565 1567 1568 1569 1571 1572 1573 1573 1574 1574 1575 1575 1576
1536 1537 1538 1528 1523 1520 1513 1510 1511 1513 1515 1516 1515 1516 1517 1519 1522 1523 1523 1525 1529 1532 1535 1537 1541 1544 1548 1550 1553 1555 1557 1559 1561 1562 1564 1565 1566 1568 1569 1570 1571 1572 1573 1574 1574 1574 1575 1575 1576
1537 1538 1535 1528 1522 1512 1512 1512 1513 1513 1514 1515 1515 1516 1518 1521 1522 1523 1523 1526 1530 1533 1536 1538 1541 1545 1548 1551 1554 1556 1558 1560 1561 1563 1564 1566 1567 1569 1570 1571 1572 1573 1573 1574 1574 1575 1575 1576 1576
1536 1534 1527 1523 1516 1509 1511 1514 1515 1513 1513 1515 1516 1514 1518 1521 1521 1522 1524 1527 1531 1535 1538 1539 1542 1545 1548 1551 1554 1556 1558 1560 1562 1563 1565 1566 1568 1569 1570 1571 1572 1573 1573 1573 1574 1574 1575 1575 1576
1532 1528 1525 1519 1510 1507 1510 1513 1514 1512 1510 1512 1514 1514 1517 1521 1522 1524 1526 1529 1533 1536 1539 1539 1542 1545 1548 1551 1554 1556 1558 1560 1562 1563 1565 1566 1568 1569 1570 1571 1572 1572 1573 1573 1574 1574 1575 1575 1576
1527 1522 1518 1512 1509 1507 1508 1511 1511 1509 1508 1510 1512 1513 1517 1521 1522 1525 1528 1530 1534 1537 1539 1540 1542 1545 1548 1551 1553 1556 1558 1560 1562 1563 1565 1566 1567 1569 1570 1571 1571 1572 1572 1573 1573 1574 1574 1575 1576
1524 1519 1514 1510 1510 1507 1506 1510 1510 1509 1507 1509 1512 1511 1513 1519 1521 1525 1528 1531 1534 1536 1539 1541 1543 1545 1548 1550 1553 1555 1557 1559 1561 1563 1564 1566 1567 1568 1569 1570 1571 1571 1572 1572 1573 1573 1574 1575 1575
1525 1520 1511 1506 1508 1505 1506 1508 1508 1509 1508 1509 1510 1512 1514 1517 1520 1523 1527 1530 1532 1535 1537 1540 1543 1545 1548 1551 1552 1554 1556 1558 1560 1562 1563 1565 1567 1569 1569 1570 1570 1571 1571 1572 1572 1573 1574 1575 1575
1521 1515 1507 1504 1505 1504 1505 1507 1506 1506 1505 1506 1509 1512 1514 1515 1518 1521 1524 1526 1529 1532 1535 1539 1542 1544 1548 1551 1552 1554 1556 1557 1559 1562 1563 1565 1567 1569 1570 1569 1569 1570 1570 1571 1572 1572 1573 1575 1577
1515 1510 1506 1508 1509 1509 1507 1506 1505 1504 1500 1501 1504 1509 1512 1514 1516 1519 1521 1524 1527 1530 1533 1537 1540 1543 1547 1549 1551 1554 1556 1557 1559 1561 1562 1564 1566 1567 1568 1569 1569 1569 1570 1572 1571 1573 1575 1576 1576
1512 1511 1510 1509 1509 1509 1506 1505 1503 1501 1499 1500 1502 1505 1509 1511 1513 1515 1519 1522 1526 1529 1532 1535 1538 1540 1544 1548 1550 1552 1555 1556 1558 1559 1561 1563 1564 1566 1568 1568 1570 1570 1571 1571 1572 1573 1574 1574 1575
1511 1509 1510 1510 1509 1507 1506 1504 1502 1498 1498 1499 1501 1503 1506 1508 1511 1514 1517 1521 1524 1527 1530 1533 1536 1538 1541 1544 1547 1550 1553 1555 1557 1558 1560 1562 1564 1565 1566 1567 1567 1569 1570 1570 1570 1572 1572 1573 1574
1507 1508 1508 1507 1505 1505 1504 1500 1498 1495 1496 1497 1498 1500 1503 1505 1508 1512 1514 1517 1520 1523 1527 1531 1533 1536 1538 1541 1544 1548 1551 1552 1556 1557 1559 1560 1562 1563 1564 1565 1566 1567 1568 1569 1570 1570 1570 1571 1572
1507 1507 1504 1502 1502 1500 1501 1496 1492 1493 1494 1494 1496 1498 1500 1503 1506 1508 1510 1513 1517 1520 1524 1527 1530 1533 1535 1539 1542 1546 1549 1551 1554 1556 1557 1558 1560 1562 1563 1564 1564 1565 1566 1566 1567 1568 1569 1569 1569
1505 1504 1501 1493 1496 1497 1501 1492 1485 1491 1492 1492 1493 1495 1497 1500 1502 1505 1508 1510 1514 1517 1520 1523 1527 1530 1532 1536 1539 1544 1547 1549 1551 1553 1555 1556 1558 1559 1560 1562 1563 1563 1564 1564 1565 1566 1567 1566 1567
1500 1498 1495 1492 1493 1493 1494 1487 1483 1489 1490 1490 1491 1492 1494 1497 1499 1501 1504 1507 1510 1513 1516 1519 1523 1526 1529 1533 1536 1540 1542 1545 1547 1550 1552 1554 1556 1557 1558 1559 1560 1560 1561 1562 1562 1563 1563 1563 1563
1494 1493 1493 1491 1490 1493 1491 1487 1485 1488 1488 1488 1489 1490 1492 1493 1495 1498 1501 1504 1507 1509 1512 1515 1519 1522 1526 1529 1532 1535 1538 1541 1544 1546 1547 1550 1551 1552 1554 1555 1556 1557 1557 1558 1559 1559 1559 1560 1559
1491 1492 1493 1490 1491 1493 1490 1487 1484 1485 1487 1486 1487 1488 1490 1491 1493 1495 1497 1500 1502 1505 1507 1510 1514 1517 1520 1524 1527 1530 1534 1536 1538 1540 1542 1544 1545 1547 1548 1549 1550 1552 1552 1553 1554 1554 1555 1555 1555
1496 1497 1495 1492 1492 1494 1490 1487 1483 1484 1486 1487 1488 1489 1489 1490 1491 1492 1493 1495 1497 1500 1502 1505 1508 1512 1515 1519 1522 1526 1529 1532 1534 1536 1537 1539 1540 1541 1543 1544 1545 1546 1547 1548 1549 1550 1551 1551 1552
1496 1496 1493 1493 1490 1490 1492 1488 1482 1481 1485 1488 1489 1490 1490 1490 1490 1490 1491 1492 1493 1495 1498 1501 1504 1508 1511 1515 1518 1521 1525 1527 1529 1532 1534 1534 1535 1536 1537 1539 1540 1541 1543 1542 1543 1545 1546 1547 1548
1493 1489 1491 1492 1494 1486 1488 1488 1476 1476 1481 1487 1489 1490 1490 1490 1489 1489 1489 1489 1490 1492 1495 1497 1500 1503 1507 1510 1514 1516 1520 1523 1525 1528 1529 1530 1531 1533 1534 1535 1537 1538 1538 1539 1540 1542 1542 1543 1544
1485 1484 1488 1489 1490 1489 1486 1491 1473 1475 1480 1486 1491 1493 1493 1492 1491 1489 1489 1488 1489 1490 1492 1494 1497 1501 1504 1508 1512 1515 1518 1521 1523 1524 1526 1527 1528 1530 1532 1533 1534 1535 1535 1536 1537 1538 1539 1539 1540
1483 1486 1488 1488 1486 1495 1483 1486 1478 1475 1485 1490 1494 1496 1496 1495 1493 1491 1490 1489 1489 1490 1491 1494 1497 1500 1504 1507 1511 1514 1517 1519 1520 1522 1523 1525 1526 1527 1529 1530 1531 1532 1533 1533 1534 1535 1536 1536 1537
1483 1488 1493 1493 1491 1485 1473 1481 1477 1486 1491 1494 1497 1499 1499 1498 1496 1495 1493 1492 1492 1493 1494 1496 1498 1501 1505 1508 1511 1514 1516 1518 1520 1521 1523 1524 1525 1526 1527 1528 1530 1530 1531 1532 1533 1534 1534 1535 1535
1479 1480 1485 1487 1482 1473 1476 1476 1481 1489 1495 1498 1500 1502 1502 1501 1500 1498 1498 1497 1497 1497 1498 1500 1502 1504 1507 1509 1512 1514 1516 1518 1520 1521 1522 1523 1524 1526 1527 1528 1529 1530 1531 1532 1533 1533 1533 1534 1534
1473 1474 1467 1472 1471 1473 1469 1475 1486 1491 1496 1500 1502 1504 1505 1505 1504 1503 1502 1501 1502 1502 1503 1504 1506 1507 1510 1512 1514 1515 1517 1519 1520 1521 1523 1524 1525 1526 1527 1529 1530 1531 1532 1532 1533 1533 1533 1533 1533
1465 1465 1471 1476 1483 1482 1473 1473 1474 1487 1495 1500 1504 1507 1508 1508 1508 1507 1507 1506 1507 1507 1508 1509 1510 1511 1513 1515 1516 1518 1519 1521 1522 1523 1524 1525 1527 1528 1529 1530 1531 1531 1532 1532 1532 1532 1532 1531 1530
1469 1469 1469 1468 1465 1473 1476 1471 1472 1482 1493 1500 1505 1509 1511 1511 1511 1511 1512 1512 1512 1512 1513 1513 1514 1515 1517 1518 1519 1520 1522 1523 1524 1525 1526 1527 1528 1529 1529 1530 1531 1531 1531 1531 1531 1531 1530 1529 1528
1460 1462 1466 1472 1471 1468 1467 1479 1482 1488 1495 1500 1506 1510 1513 1514 1515 1516 1516 1516 1516 1517 1517 1518 1519 1520 1521 1522 1522 1523 1524 1525 1526 1527 1527 1528 1529 1530 1530 1531 1531 1531 1531 1530 1530 1529 1528 1527 1526